LEMUR-2-KEVIN (43046 NORAD) Tracking and Keplerian Element Data

This shows tracking and keplerian element data for the satellite.

Feedback or suggestion? Click here.




ElementValue
Catalog43046
NameLEMUR-2-KEVIN
Epoch Orbit1083
Epoch Day46.10328017
Epoch Year2018
RAAN275.6219
Inclination51.64
Eccentricity0.0004698
Argument of Perigee160.0275
Mean Anonmoly200.0894
Mean Motion15.38694851
Decay Rate4.694E-05
L11 43046U 17071K 18046.10328017 .00004694 00000-0 13096-3 0 9999
L22 43046 51.6400 275.6219 0004698 160.0275 200.0894 15.38694851 10830

Live tracking and technical data element details for LEMUR-2-KEVIN (NORAD 43046). LEMUR-2-KEVIN can be tracked NOW for your location showing map with azimuth and elevation plus other details from your city location.

Track the satellite on the map from your city or location and see movement details for azimuth, elevation, latitude, longitude, range, height, and movement on the map or in text.







IsCatalogInMostPopularTable: catalog: 43046, numindb: 129
Update: records affected: 1



GetName: 43046 LEMUR-2-KEVIN

Hit Count: updated at: Mon, 19 Nov 2018 10:59:37 GMT